Powrót do katalogu

COSMOS 1275 DEB

AktywnyPO
NORAD 42148·DEBRIS·🇷🇺 Russia

Wystrzelony Jun 4, 1981 z Plesetsk Cosmodrome

Loading…

Następne Przeloty (najbliższe 24 godziny)

TLE

ŚwieżeSource: Space-Track

Epoka: Sep 13, 2026, 15:00 UTC

1 42148U 81053RL  26256.62556834  .00000758  00000-0  63262-3 0  9998
2 42148  83.0948 130.8415 0076917 284.2464  75.0165 13.85936818645961

Śledź COSMOS 1275 DEB w czasie rzeczywistym z AllMySat

Download on the App Store